When you browse on this site, cookies collect data to enhance your experience and personalize the content and advertising you see.
Visit our Privacy Policy to learn more. By continuing to use the site, you agree to this use of cookies and data.
  • In Sweden
  • List of Countries
  • For 7 days
  • Water Temperature
  • Weather Map
  • Weather Widgets
  • user-avatar
    Login

    Hourly Weather Benguela

    Today, 22 September, Sunday

    Time Temperature Precipitation Wind Pressure Humidity
    00:00 +22°C° 0 mm 1 mps 759 mmHg 88%
    01:00 +22°C° 0 mm 1 mps 759 mmHg 88%
    02:00 +22°C° 0 mm 1 mps 759 mmHg 88%
    03:00 +22°C° 0 mm 1 mps 758 mmHg 89%
    04:00 +20°C° 0 mm 0 mps 758 mmHg 90%
    05:00 +20°C° 0 mm 0 mps 759 mmHg 87%
    06:00 +21°C° 0 mm 0 mps 759 mmHg 84%
    07:00 +23°C° 0 mm 1 mps 760 mmHg 82%
    08:00 +25°C° 0 mm 1 mps 759 mmHg 72%
    09:00 +27°C° 0 mm 2 mps 759 mmHg 63%
    10:00 +29°C° 0 mm 2 mps 759 mmHg 53%
    11:00 +30°C° 0 mm 3 mps 758 mmHg 51%
    12:00 +32°C° 0 mm 4 mps 757 mmHg 49%
    13:00 +33°C° 0 mm 5 mps 757 mmHg 47%
    14:00 +32°C° 0 mm 4 mps 757 mmHg 49%
    15:00 +30°C° 0 mm 4 mps 756 mmHg 52%
    16:00 +29°C° 0 mm 4 mps 756 mmHg 55%
    17:00 +27°C° 0 mm 4 mps 757 mmHg 65%
    18:00 +25°C° 0 mm 3 mps 757 mmHg 74%
    19:00 +22°C° 0 mm 3 mps 758 mmHg 84%
    20:00 +21°C° 0 mm 2 mps 759 mmHg 87%
    21:00 +20°C° 0 mm 2 mps 759 mmHg 90%
    22:00 +21°C° 0 mm 1 mps 759 mmHg 93%
    23:00 +20°C° 0 mm 1 mps 759 mmHg 93%

    Tomorrow, 23 September, Monday

    Time Temperature Precipitation Wind Pressure Humidity
    00:00 +18°C° 0 mm 0 mps 759 mmHg 94%
    01:00 +18°C° 0 mm 0 mps 759 mmHg 94%
    02:00 +18°C° 0 mm 0 mps 759 mmHg 94%
    03:00 +20°C° 0 mm 1 mps 759 mmHg 93%
    04:00 +21°C° 0 mm 1 mps 759 mmHg 93%
    05:00 +21°C° 0 mm 1 mps 759 mmHg 88%
    06:00 +22°C° 0 mm 1 mps 759 mmHg 84%
    07:00 +23°C° 0 mm 1 mps 760 mmHg 79%
    08:00 +26°C° 0 mm 1 mps 759 mmHg 69%
    09:00 +28°C° 0 mm 2 mps 759 mmHg 59%
    10:00 +30°C° 0 mm 3 mps 758 mmHg 48%
    11:00 +31°C° 0 mm 3 mps 758 mmHg 48%
    12:00 +32°C° 0 mm 4 mps 757 mmHg 47%
    13:00 +33°C° 0 mm 4 mps 757 mmHg 46%
    14:00 +32°C° 0 mm 4 mps 756 mmHg 49%
    15:00 +30°C° 0 mm 4 mps 756 mmHg 52%
    16:00 +29°C° 0 mm 3 mps 756 mmHg 55%
    17:00 +27°C° 0 mm 3 mps 757 mmHg 65%
    18:00 +25°C° 0 mm 2 mps 757 mmHg 76%
    19:00 +23°C° 0 mm 1 mps 758 mmHg 86%
    20:00 +22°C° 0 mm 1 mps 759 mmHg 87%
    21:00 +21°C° 0 mm 2 mps 759 mmHg 88%
    22:00 +21°C° 0 mm 2 mps 760 mmHg 89%
    23:00 +21°C° 0 mm 2 mps 760 mmHg 89%

    Day after tomorrow, 24 September, Tuesday

    Time Temperature Precipitation Wind Pressure Humidity
    00:00 +22°C° 0 mm 1 mps 759 mmHg 89%
    01:00 +19°C° 0 mm 0 mps 759 mmHg 89%
    02:00 +21°C° 0 mm 1 mps 759 mmHg 89%
    03:00 +21°C° 0 mm 1 mps 759 mmHg 89%
    04:00 +21°C° 0 mm 1 mps 758 mmHg 88%
    05:00 +22°C° 0 mm 1 mps 759 mmHg 81%
    06:00 +23°C° 0 mm 1 mps 759 mmHg 74%
    07:00 +25°C° 0 mm 1 mps 759 mmHg 67%
    08:00 +27°C° 0 mm 1 mps 759 mmHg 60%
    09:00 +29°C° 0 mm 2 mps 759 mmHg 52%
    10:00 +33°C° 0 mm 3 mps 758 mmHg 44%
    11:00 +33°C° 0 mm 4 mps 758 mmHg 46%
    12:00 +32°C° 0 mm 4 mps 757 mmHg 48%
    13:00 +32°C° 0 mm 5 mps 756 mmHg 50%
    14:00 +30°C° 0 mm 4 mps 756 mmHg 54%
    15:00 +29°C° 0 mm 4 mps 756 mmHg 58%
    16:00 +28°C° 0 mm 4 mps 756 mmHg 62%
    17:00 +27°C° 0 mm 3 mps 757 mmHg 69%
    18:00 +25°C° 0 mm 3 mps 757 mmHg 77%
    19:00 +24°C° 0 mm 2 mps 758 mmHg 84%
    20:00 +24°C° 0 mm 2 mps 759 mmHg 82%
    21:00 +24°C° 0 mm 1 mps 759 mmHg 80%
    22:00 +24°C° 0 mm 1 mps 760 mmHg 79%
    23:00 +24°C° 0 mm 1 mps 760 mmHg 80%

    25 September, Wednesday

    Time Temperature Precipitation Wind Pressure Humidity
    00:00 +23°C° 0 mm 1 mps 760 mmHg 82%
    01:00 +21°C° 0 mm 0 mps 760 mmHg 83%
    02:00 +20°C° 0 mm 0 mps 759 mmHg 86%
    03:00 +20°C° 0 mm 0 mps 759 mmHg 89%
    04:00 +19°C° 0 mm 0 mps 759 mmHg 91%
    05:00 +22°C° 0 mm 1 mps 759 mmHg 87%
    06:00 +23°C° 0 mm 1 mps 760 mmHg 82%
    07:00 +24°C° 0 mm 1 mps 760 mmHg 77%
    08:00 +26°C° 0 mm 2 mps 760 mmHg 68%
    09:00 +28°C° 0 mm 3 mps 760 mmHg 59%
    10:00 +30°C° 0 mm 4 mps 759 mmHg 50%
    11:00 +32°C° 0 mm 4 mps 759 mmHg 49%
    12:00 +32°C° 0 mm 4 mps 758 mmHg 48%
    13:00 +32°C° 0 mm 4 mps 757 mmHg 48%
    14:00 +30°C° 0 mm 4 mps 757 mmHg 51%
    15:00 +30°C° 0 mm 4 mps 757 mmHg 55%
    16:00 +29°C° 0 mm 4 mps 756 mmHg 59%
    17:00 +27°C° 0 mm 3 mps 757 mmHg 67%
    18:00 +25°C° 0 mm 2 mps 758 mmHg 76%
    19:00 +24°C° 0 mm 1 mps 758 mmHg 84%
    20:00 +24°C° 0 mm 1 mps 759 mmHg 83%
    21:00 +24°C° 0 mm 1 mps 760 mmHg 82%
    22:00 +24°C° 0 mm 1 mps 760 mmHg 81%
    23:00 +23°C° 0 mm 1 mps 760 mmHg 84%

    26 September, Thursday

    Time Temperature Precipitation Wind Pressure Humidity
    00:00 +22°C° 0 mm 1 mps 760 mmHg 88%
    01:00 +19°C° 0 mm 0 mps 760 mmHg 92%
    02:00 +21°C° 0 mm 1 mps 759 mmHg 91%
    03:00 +21°C° 0 mm 1 mps 759 mmHg 90%
    04:00 +21°C° 0 mm 1 mps 759 mmHg 90%
    05:00 +22°C° 0 mm 1 mps 759 mmHg 85%
    06:00 +23°C° 0 mm 1 mps 760 mmHg 80%
    07:00 +22°C° 0 mm 0 mps 760 mmHg 74%
    08:00 +26°C° 0 mm 1 mps 760 mmHg 65%
    09:00 +29°C° 0 mm 2 mps 759 mmHg 55%
    10:00 +31°C° 0 mm 3 mps 759 mmHg 45%
    11:00 +32°C° 0 mm 4 mps 758 mmHg 46%
    12:00 +32°C° 0 mm 5 mps 757 mmHg 47%
    13:00 +32°C° 0 mm 5 mps 757 mmHg 49%
    14:00 +30°C° 0 mm 5 mps 756 mmHg 53%
    15:00 +29°C° 0 mm 4 mps 756 mmHg 56%
    16:00 +28°C° 0 mm 4 mps 756 mmHg 60%
    17:00 +27°C° 0 mm 3 mps 757 mmHg 69%
    18:00 +25°C° 0 mm 2 mps 758 mmHg 78%
    19:00 +23°C° 0 mm 1 mps 759 mmHg 87%
    20:00 +23°C° 0 mm 1 mps 760 mmHg 86%
    21:00 +21°C° 0 mm 0 mps 760 mmHg 86%
    22:00 +22°C° 0 mm 0 mps 761 mmHg 85%
    23:00 +22°C° 0 mm 0 mps 761 mmHg 85%

    27 September, Friday

    Time Temperature Precipitation Wind Pressure Humidity
    00:00 +22°C° 0 mm 0 mps 760 mmHg 84%
    01:00 +22°C° 0 mm 0 mps 760 mmHg 83%
    02:00 +21°C° 0 mm 0 mps 760 mmHg 85%
    03:00 +20°C° 0 mm 0 mps 760 mmHg 88%
    04:00 +20°C° 0 mm 0 mps 760 mmHg 90%
    05:00 +21°C° 0 mm 0 mps 760 mmHg 85%
    06:00 +22°C° 0 mm 0 mps 761 mmHg 81%
    07:00 +22°C° 0 mm 0 mps 761 mmHg 76%
    08:00 +27°C° 0 mm 1 mps 761 mmHg 66%
    09:00 +29°C° 0 mm 2 mps 760 mmHg 56%
    10:00 +33°C° 0 mm 3 mps 760 mmHg 46%
    11:00 +33°C° 0 mm 3 mps 759 mmHg 46%
    12:00 +33°C° 0 mm 4 mps 758 mmHg 46%
    13:00 +33°C° 0 mm 5 mps 757 mmHg 46%
    14:00 +32°C° 0 mm 4 mps 757 mmHg 50%
    15:00 +30°C° 0 mm 4 mps 757 mmHg 54%
    16:00 +29°C° 0 mm 4 mps 756 mmHg 58%
    17:00 +27°C° 0 mm 3 mps 757 mmHg 68%
    18:00 +26°C° 0 mm 2 mps 758 mmHg 77%
    19:00 +24°C° 0 mm 1 mps 758 mmHg 87%
    20:00 +23°C° 0 mm 1 mps 759 mmHg 89%
    21:00 +23°C° 0 mm 1 mps 760 mmHg 90%
    22:00 +23°C° 0 mm 1 mps 760 mmHg 92%
    23:00 +22°C° 0 mm 1 mps 760 mmHg 92%
    Show more